Beijing, China

8:21 AM CST on July 21, 2018 (GMT +0800)
Beijing Capital

Weather History for ZBAA - July, 2018

Change the Weather History Date:

Thursday, July 12, 2018

  Actual Average Record
Temperature  
Mean Temperature 75 °F -  
Max Temperature 81 °F 86 °F 104 °F (2001)
Min Temperature 69 °F 70 °F 66 °F (1996)
Cooling Degree Days 10    
Growing Degree Days 25 (Base 50)    
Moisture  
Dew Point 71 °F    
Average Humidity 86    
Maximum Humidity 100    
Minimum Humidity 64    
Precipitation  
Precipitation 0.08 in 0.23 in - ()
Sea Level Pressure  
Sea Level Pressure 29.71 in    
Wind  
Wind Speed 2 mph ()    
Max Wind Speed 7 mph    
Max Gust Speed -    
Visibility 3.8 miles    
Events Rain    
Averages and records for this station are not official NWS values.
T = Trace of Precipitation, MM = Missing Value Source: Averaged Metar Reports

Daily Weather History Graph

Daily Weather History Graph

Search for Another Location

Airport or City:

Astronomy

Jul. 12, 2018 Rise Set
Actual Time 4:54 AM CST 7:43 PM CST
Civil Twilight 4:22 AM CST 8:15 PM CST
Nautical Twilight 3:42 AM CST 8:55 PM CST
Astronomical Twilight 2:55 AM CST 9:42 PM CST
Moon 3:47 AM CST (7/12) 6:51 PM CST (7/12)
Length of Visible Light 15h 53m
Length of Day
14h 48m
Waning Crescent, 1% of the Moon is Illuminated
Jul 12
Waning Crescent
Jul 13
New
Jul 20
First Quarter
Jul 28
Full
Aug 5
Last Quarter

Hourly Weather History & Observations

Time (CST) Temp. Heat Index Dew Point Humidity Pressure Visibility Wind Dir Wind Speed Gust Speed Precip Events Conditions
12:00 AM 69.8 °F - 69.8 °F 100% 29.74 in 3.1 mi Calm Calm - N/A Rain Light Rain
12:30 AM 69.8 °F - 69.8 °F 100% 29.74 in 3.1 mi Calm Calm - N/A Rain Light Rain
1:00 AM 69.8 °F - 69.8 °F 100% 29.74 in 3.1 mi Variable 2.2 mph - N/A Rain Light Rain
1:30 AM 69.8 °F - 69.8 °F 100% 29.71 in 3.1 mi NNE 4.5 mph - N/A Rain Light Rain
2:00 AM 70 °F - 69 °F 94% 29.72 in 1 mi ESE 2.2 mph - -   Mist
2:00 AM 69.8 °F - 69.8 °F 100% 29.71 in 3.7 mi Variable 2.2 mph - N/A Rain Light Rain
2:30 AM 69.8 °F - 69.8 °F 100% 29.71 in 3.1 mi Variable 2.2 mph - N/A Rain Light Rain
3:00 AM 69.8 °F - 69.8 °F 100% 29.71 in 3.7 mi Variable 2.2 mph - N/A Rain Light Rain
3:30 AM 69.8 °F - 69.8 °F 100% 29.71 in 3.7 mi West 4.5 mph - N/A Rain Light Rain
4:00 AM 69.8 °F - 69.8 °F 100% 29.71 in 3.7 mi NNE 4.5 mph - N/A Rain Light Rain
4:30 AM 69.8 °F - 69.8 °F 100% 29.71 in 3.7 mi Calm Calm - N/A Rain Light Rain
5:00 AM 70 °F - 69 °F 95% 29.74 in 1 mi WNW 2.2 mph - -   Mist
5:00 AM 69.8 °F - 69.8 °F 100% 29.71 in 3.1 mi Variable 2.2 mph - N/A   Overcast
5:30 AM 71.6 °F - 69.8 °F 94% 29.74 in 2.8 mi West 4.5 mph - N/A   Overcast
6:00 AM 71.6 °F - 69.8 °F 94% 29.74 in 2.8 mi Variable 2.2 mph - N/A   Overcast
6:30 AM 71.6 °F - 69.8 °F 94% 29.74 in 2.8 mi North 4.5 mph - N/A   Overcast
7:00 AM 71.6 °F - 69.8 °F 94% 29.74 in 2.8 mi North 4.5 mph - N/A   Overcast
8:00 AM 72 °F - 70 °F 91% 29.73 in 1 mi ESE 4.5 mph - -   Mist
8:00 AM 71.6 °F - 69.8 °F 94% 29.74 in 3.1 mi North 4.5 mph - N/A   Overcast
8:30 AM 73.4 °F - 69.8 °F 88% 29.74 in 3.7 mi Variable 2.2 mph - N/A   Overcast
9:00 AM 73.4 °F - 69.8 °F 88% 29.74 in 3.7 mi North 4.5 mph - N/A   Overcast
9:30 AM 75.2 °F - 69.8 °F 83% 29.77 in 5.0 mi Variable 2.2 mph - N/A   Partly Cloudy
10:00 AM 75.2 °F - 69.8 °F 83% 29.74 in 5.0 mi Variable 2.2 mph - N/A   Unknown
10:30 AM 77.0 °F - 69.8 °F 78% 29.74 in - Variable 2.2 mph - N/A   Clear
11:00 AM 76 °F - 70 °F 75% 29.75 in 3 mi SSW 2.2 mph - - Rain Light Rain
11:30 AM 77.0 °F - 69.8 °F 78% 29.74 in 6.2 mi Variable 2.2 mph - N/A   Partly Cloudy
12:00 PM 78.8 °F - 69.8 °F 74% 29.74 in 6.2 mi Variable 2.2 mph - N/A   Partly Cloudy
12:30 PM 78.8 °F - 69.8 °F 74% 29.74 in 6.2 mi Variable 4.5 mph - N/A   Partly Cloudy
1:00 PM 78.8 °F - 69.8 °F 74% 29.74 in 6.2 mi Variable 2.2 mph - N/A   Scattered Clouds
1:30 PM 78.8 °F - 71.6 °F 78% 29.71 in 6.2 mi West 4.5 mph - N/A   Scattered Clouds
2:00 PM 80 °F - 70 °F 65% 29.71 in 4 mi SSE 4.5 mph - -   Haze
2:00 PM 78.8 °F - 69.8 °F 74% 29.71 in - Variable 4.5 mph - N/A   Clear
2:30 PM 80.6 °F 84.6 °F 71.6 °F 74% 29.71 in - Variable 2.2 mph - N/A   Clear
3:00 PM 80.6 °F 84.6 °F 71.6 °F 74% 29.71 in - Variable 2.2 mph - N/A   Clear
3:30 PM 80.6 °F 84.6 °F 71.6 °F 74% 29.68 in - East 4.5 mph - N/A   Clear
4:00 PM 80.6 °F 84.6 °F 71.6 °F 74% 29.68 in - Variable 2.2 mph - N/A   Clear
4:30 PM 80.6 °F 84.6 °F 71.6 °F 74% 29.68 in - Variable 6.7 mph - N/A   Clear
5:00 PM 81 °F - 71 °F 64% 29.68 in 6 mi NNW 4.5 mph - -   Mostly Cloudy
5:00 PM 78.8 °F - 71.6 °F 78% 29.68 in - NNW 6.7 mph - N/A   Clear
5:30 PM 78.8 °F - 71.6 °F 78% 29.68 in - NE 4.5 mph - N/A   Clear
6:00 PM 78.8 °F - 71.6 °F 78% 29.68 in - Variable 2.2 mph - N/A   Clear
6:30 PM 78.8 °F - 73.4 °F 83% 29.68 in - Variable 2.2 mph - N/A   Clear
7:00 PM 78.8 °F - 73.4 °F 83% 29.68 in - Variable 2.2 mph - N/A   Clear
7:30 PM 77.0 °F - 73.4 °F 89% 29.68 in - Variable 2.2 mph - N/A   Clear
8:00 PM 79 °F - 71 °F 70% 29.68 in 5 mi NE 4.5 mph - -   Mostly Cloudy
8:00 PM 77.0 °F - 71.6 °F 83% 29.68 in - Variable 2.2 mph - N/A   Clear
8:30 PM 77.0 °F - 71.6 °F 83% 29.68 in - Variable 2.2 mph - N/A   Clear
9:00 PM 75.2 °F - 71.6 °F 89% 29.68 in - Variable 2.2 mph - N/A   Clear
9:30 PM 75.2 °F - 73.4 °F 94% 29.71 in - North 4.5 mph - N/A   Clear
10:00 PM 75.2 °F - 71.6 °F 89% 29.71 in - Variable 2.2 mph - N/A   Clear
10:30 PM 75.2 °F - 71.6 °F 89% 29.71 in - Variable 2.2 mph - N/A   Clear
11:00 PM 77 °F - 70 °F 74% 29.71 in 4 mi NE 4.5 mph - -   Haze
11:00 PM 75.2 °F - 71.6 °F 89% 29.71 in - Calm Calm - N/A   Clear
11:30 PM 75.2 °F - 71.6 °F 89% 29.71 in - North 4.5 mph - N/A   Clear